This is the latest recevied weather packets stored in our database for station/object OK3MS-5. If no packets are shown the sender has not sent any weather packets the latest 10 day(s).
| Time | Temp. | Humidity | Pressure | Rain* | Wind** | Luminosity | Snow |
|---|---|---|---|---|---|---|---|
| 1777602005 | -0.56° C | 87% | 1030.7 hPa | 0 mm | - | 0 W/m² | - |
| 1777601709 | -0.56° C | 87% | 1030.7 hPa | 0 mm | - | 0 W/m² | - |
| 1777601403 | -0.56° C | 86% | 1030.7 hPa | 0 mm | - | 0 W/m² | - |
| 1777601102 | 0° C | 86% | 1030.8 hPa | 0 mm | - | 0 W/m² | - |
| 1777600811 | 0° C | 85% | 1030.6 hPa | 0 mm | - | 0 W/m² | - |
| 1777600504 | 0° C | 85% | 1030.7 hPa | 0 mm | - | 0 W/m² | - |
| 1777600207 | 0° C | 84% | 1030.7 hPa | 0 mm | - | 0 W/m² | - |
| 1777599904 | 0.56° C | 85% | 1030.5 hPa | 0 mm | - | 0 W/m² | - |
| 1777599611 | 0.56° C | 84% | 1030.5 hPa | 0 mm | - | 0 W/m² | - |
| 1777599308 | 0.56° C | 84% | 1030.4 hPa | 0 mm | - | 0 W/m² | - |
| 1777598707 | 0.56° C | 84% | 1030.5 hPa | 0 mm | - | 0 W/m² | - |
| 1777598410 | 0.56° C | 84% | 1030.5 hPa | 0 mm | - | 0 W/m² | - |
| 1777598103 | 0.56° C | 84% | 1030.5 hPa | 0 mm | - | 0 W/m² | - |
| 1777597802 | 0.56° C | 85% | 1030.4 hPa | 0 mm | - | 0 W/m² | - |
| 1777597502 | 1.11° C | 87% | 1030.4 hPa | 0 mm | - | 0 W/m² | - |
| 1777597203 | 1.11° C | 87% | 1030.5 hPa | 0 mm | - | 0 W/m² | - |
| 1777596904 | 1.11° C | 84% | 1030.3 hPa | 0 mm | - | 0 W/m² | - |
| 1777596604 | 1.11° C | 82% | 1030.3 hPa | 0 mm | - | 0 W/m² | - |
| 1777596303 | 1.11° C | 79% | 1030.3 hPa | 0 mm | - | 0 W/m² | - |
| 1777596004 | 1.11° C | 80% | 1030.3 hPa | 0 mm | - | 0 W/m² | - |
| 1777595703 | 1.67° C | 78% | 1030.2 hPa | 0 mm | - | 0 W/m² | - |
| 1777595405 | 2.22° C | 77% | 1030.2 hPa | 0 mm | - | 0 W/m² | - |
| 1777595110 | 2.22° C | 76% | 1030.1 hPa | 0 mm | - | 0 W/m² | - |
| 1777594802 | 2.78° C | 74% | 1030 hPa | 0 mm | - | 0 W/m² | - |
| 1777594508 | 2.78° C | 77% | 1030 hPa | 0 mm | - | 0 W/m² | - |
* Rain latest hour (hover to see other rain measurements)
** Current wind speed in m/s (hover to see current wind gust speed)